Location: Bednik
(45.3500°N, 16.3833°E)
Time: 05:33:52
(UTC+00:00)

USA 238 DEB - Pass Details

Date: 08 August 2020
Orbit: 1006 x 1206 km, 63.4° (Epoch: 19 September)

Event Time Altitude Azimuth Distance (km) Brightness Sun altitude
Rises 20:29:25 0° 209° (SSW) 3,729 6.3 -20.0°
Reaches altitude 10° 20:31:58 10° 207° (SSW) 2,793 5.6 -20.2°
Maximum altitude 20:38:31 74° 124° (SE) 1,084 3.5 -20.9°
Drops below altitude 10° 20:45:21 10° 41° (NE) 2,919 6.1 -21.6°
Sets 20:48:05 0° 40° (NE) 3,908 6.9 -21.9°
